[[{"header":{"parameterUnit":"m.s-1","parameterCategory":1,"la1":30.2991,"la2":30.254,"lo1":-89.0895,"lo2":-89.0444,"dy":0.0017,"dx":0.0017,"nx":28,"ny":28,"refTime":"2024-06-18T03:00:00:Z","depth":0,"parameterNumber":2,"parameterNumberName":"U-component_of_WINDS"},"data":[0,0,0,0,0,0,0,0,0,0,0,0,0,0,0,0,0,0,0,0,0,0,0,0,0,0,0,0,0,0,0,0,0,0,0,0,0,0,0,0,0,0,0,0,0,0,0,0,0,0,0,0,0,0,0,0,0,0,-6.421,-6.4209,0,-6.4087,-6.4085,-6.4084,-6.3888,-6.3884,-6.3881,-6.3878,-6.3752,-6.3751,-6.3751,0,0,0,0,0,0,0,0,0,0,0,0,0,-6.4279,-6.4279,-6.4211,-6.4209,-6.4207,-6.4087,-6.4085,-6.4084,-6.3889,-6.3884,-6.388,-6.3876,-6.3752,-6.3751,-6.3751,0,0,0,0,0,0,0,0,0,0,0,0,0,-6.4212,-6.4278,-6.4211,-6.4096,-6.4084,-6.4087,-6.4085,-6.4083,-6.389,-6.3884,-6.3879,-6.3874,-6.3752,-6.3751,-6.3751,-6.3858,0,0,-6.3751,-6.3751,0,0,0,0,0,0,0,0,-6.4216,-6.4209,-6.4114,-6.4104,-6.4091,-6.3997,-6.4063,-6.4008,-6.3891,-6.3964,-6.3877,-6.3871,-6.3838,-6.383,-6.3819,-6.3852,-6.3846,-6.3751,-6.3751,-6.3751,-6.3751,0,0,0,0,0,0,0,-6.4221,-6.4214,-6.4161,-6.4113,-6.4099,-6.405,-6.4035,-6.4052,-6.3932,-6.3957,-6.3942,-6.393,-6.383,-6.3819,-6.3814,-6.3844,-6.3751,-6.3751,-6.3751,-6.3751,-6.3956,-6.3962,0,0,0,0,0,0,-6.4242,-6.4219,-6.4165,-6.4158,-6.4141,-6.4054,-6.4036,-6.4033,-6.3931,-6.3911,-6.3935,-6.3922,-6.3822,-6.3815,-6.3809,-6.3924,-6.3751,-6.3751,-6.3751,-6.3951,-6.3958,-6.3964,0,0,0,0,0,0,-6.4244,-6.4239,-6.417,-6.4184,-6.4172,-6.4058,-6.4056,-6.4033,-6.4022,-6.3915,-6.3892,-6.3946,-6.3817,-6.3809,-6.3846,-6.3917,-6.3751,-6.3751,-6.3944,-6.3953,-6.3961,-6.4157,0,0,0,0,0,0,-6.4247,-6.4241,-6.428,-6.4187,-6.4172,-6.421,-6.406,-6.4035,-6.4022,-6.4003,-6.3919,-6.39,-6.3813,-6.3848,-6.3847,-6.3914,-6.3751,-6.3937,-6.3948,-6.3958,-6.4144,-6.4171,-6.4195,0,0,0,0,0,-6.425,-6.4341,-6.4283,-6.4278,-6.4218,-6.4215,-6.4206,-6.4104,-6.4029,-6.4066,-6.3998,-6.3902,-6.3911,-6.3853,-6.385,-6.3919,-6.3932,-6.3945,-6.3957,-6.4133,-6.4166,-6.4194,0,0,0,0,0,0,-6.4445,-6.4326,-6.4261,-6.4324,-6.4281,-6.4182,-6.4226,-6.4143,-6.412,-6.4104,-6.3979,-6.3961,-6.4014,-6.3971,-6.3909,-6.4016,-6.3907,-6.3919,-6.4041,-6.4072,-6.4097,-6.4105,-6.3751,0,0,0,0,0,-6.4496,-6.4503,-6.4399,-6.4464,-6.4446,-6.4341,-6.4336,-6.4261,-6.4211,-6.4192,-6.4126,-6.4082,-6.4074,-6.4071,-6.4058,-6.4138,-6.4116,-6.4184,-6.421,-6.4231,-6.4242,-6.4279,-6.4307,-6.4004,-6.4004,-6.4004,0,0,-6.46,-6.4536,-6.4548,-6.4502,-6.446,-6.447,-6.4327,-6.4343,-6.4349,-6.4194,-6.4224,-6.4176,-6.4118,-6.4176,-6.4199,-6.4141,-6.4321,-6.4247,-6.4265,-6.4264,-6.4295,-6.4323,-6.4349,-6.4013,-6.4011,-6.401,0,0,-6.4793,-6.4747,-6.4795,-6.4756,-6.4694,-6.4623,-6.4636,-6.4549,-6.451,-6.4539,-6.4423,-6.4429,-6.4419,-6.4382,-6.4362,-6.4544,-6.4454,-6.4544,-6.4674,-6.4712,-6.4736,-6.4756,-6.4818,-6.4842,-6.4556,-6.4556,-6.4556,0,-6.493,-6.4939,-6.4831,-6.4854,-6.4837,-6.4699,-6.4746,-6.4714,-6.4652,-6.4643,-6.4581,-6.4564,-6.4516,-6.4563,-6.4608,-6.4597,-6.4606,-6.455,-6.4741,-6.4761,-6.4778,-6.4836,-6.486,-6.4567,-6.4566,-6.4565,-6.4564,0,-6.5109,-6.5118,-6.5165,-6.5107,-6.5096,-6.5133,-6.5029,-6.5031,-6.4959,-6.4895,-6.4926,-6.4864,-6.4835,-6.4841,-6.4771,-6.4879,-6.4844,-6.4764,-6.4651,-6.482,-6.4872,-6.4893,-6.4583,-6.4579,-6.4576,-6.4573,0,0,-6.5418,-6.5301,-6.532,-6.5292,-6.5215,-6.5219,-6.525,-6.5222,-6.5225,-6.5188,-6.5208,-6.5204,-6.5129,-6.5106,-6.5031,-6.5065,-6.521,-6.4979,-6.4975,-6.5021,-6.5321,-6.538,-6.5408,-6.5152,-6.5155,-6.5159,-6.5325,0,-6.5593,-6.5636,-6.554,-6.5607,-6.5613,-6.5483,-6.5509,-6.5465,-6.5408,-6.5404,-6.534,-6.5338,-6.524,-6.5226,-6.5254,-6.5186,-6.5268,-6.5173,-6.5168,-6.5169,-6.5182,-6.5435,-6.5497,-6.5657,-6.5345,-6.5349,-6.5351,0,-6.5801,-6.5774,-6.5842,-6.576,-6.5759,-6.5784,-6.575,-6.575,-6.5697,-6.5653,-6.5629,-6.5541,-6.5564,-6.546,-6.5489,-6.5427,-6.542,-6.5387,-6.5391,-6.5383,-6.5267,-6.5431,-6.5706,-6.5729,-6.5383,-6.538,-6.5378,0,-6.6016,-6.5997,-6.6034,-6.6015,-6.5921,-6.5942,-6.5904,-6.5846,-6.5835,-6.5807,-6.5798,-6.5774,-6.5759,-6.5742,-6.5649,-6.5582,-6.5689,-6.5577,-6.5651,-6.5654,-6.5676,-6.5675,-6.5951,-6.5679,-6.5679,-6.5678,-6.5678,0,-6.6219,-6.6264,-6.6129,-6.6152,-6.6199,-6.609,-6.614,-6.6089,-6.6039,-6.6049,-6.5937,-6.5949,-6.5828,-6.5827,-6.5755,-6.5789,-6.5785,-6.5748,-6.5728,-6.5756,-6.576,-6.5746,-6.5731,-6.5684,-6.5683,-6.5682,-6.5681,0,-6.6464,-6.6376,-6.6408,-6.6317,-6.6296,-6.6335,-6.6257,-6.6274,-6.621,-6.6225,-6.6222,-6.6122,-6.6115,-6.6022,-6.5995,-6.5946,-6.6008,-6.5968,-6.6025,-6.6011,-6.6089,-6.6082,-6.6362,-6.6392,-6.6105,-6.6108,-6.6111,0,-6.6597,-6.6629,-6.6543,-6.6542,-6.6509,-6.6509,-6.6497,-6.6392,-6.6385,-6.6328,-6.6352,-6.6336,-6.6316,-6.6311,-6.6236,-6.6214,-6.6171,-6.6271,-6.6167,-6.6194,-6.6168,-6.6166,-6.6168,-6.6292,-6.6295,-6.6298,-6.6301,0,-6.6842,-6.6797,-6.6785,-6.6758,-6.6748,-6.6721,-6.6688,-6.6694,-6.6577,-6.6575,-6.6566,-6.6552,-6.6524,-6.6509,-6.6475,-6.6435,-6.6348,-6.6335,-6.635,-6.6377,-6.6408,-6.6389,-6.6081,-6.6328,-6.6325,-6.6323,-6.6322,-6.6321,-6.7033,-6.7055,-6.6997,-6.6987,-6.6951,-6.6923,-6.6934,-6.6873,-6.6863,-6.6832,-6.6771,-6.6772,-6.6718,-6.6663,-6.6631,-6.6629,-6.6578,-6.6601,-6.6606,-6.6612,-6.6627,-6.6412,-6.6623,-6.6622,-6.6621,-6.6621,-6.662,0,-6.7269,-6.7226,-6.7218,-6.7175,-6.7168,-6.7089,-6.7048,-6.7047,-6.7048,-6.7006,-6.699,-6.698,-6.6965,-6.689,-6.6866,-6.6879,-6.6839,-6.6876,-6.6872,-6.6864,-6.6676,-6.6663,-6.6909,-6.6909,-6.6909,-6.6909,-6.6909,-6.6909,-6.739,-6.7422,-6.7371,-6.7385,-6.7341,-6.7341,-6.7324,-6.7297,-6.7263,-6.7256,-6.7244,-6.7195,-6.7139,-6.711,-6.7093,-6.7071,-6.7066,-6.7116,-6.7081,-6.6905,-6.6878,-6.6851,-6.6838,-6.7117,-6.7117,-6.7268,-6.727,-6.7271]},{"header":{"parameterUnit":"m.s-1","parameterCategory":1,"la1":30.2991,"la2":30.254,"lo1":-89.0895,"lo2":-89.0444,"dy":0.0017,"dx":0.0017,"nx":28,"ny":28,"refTime":"2024-06-18T03:00:00:Z","depth":0,"parameterNumber":3,"parameterNumberName":"V-component_of_WINDS"},"data":[0,0,0,0,0,0,0,0,0,0,0,0,0,0,0,0,0,0,0,0,0,0,0,0,0,0,0,0,0,0,0,0,0,0,0,0,0,0,0,0,0,0,0,0,0,0,0,0,0,0,0,0,0,0,0,0,0,0,-0.5588,-0.5588,0,-0.5559,-0.5559,-0.5558,-0.5566,-0.5567,-0.5567,-0.5568,-0.5536,-0.5534,-0.5533,0,0,0,0,0,0,0,0,0,0,0,0,0,-0.5647,-0.5646,-0.5588,-0.5588,-0.5588,-0.5559,-0.5559,-0.5558,-0.5566,-0.5567,-0.5567,-0.5568,-0.5536,-0.5535,-0.5533,0,0,0,0,0,0,0,0,0,0,0,0,0,-0.562,-0.5646,-0.5588,-0.5588,-0.5588,-0.5559,-0.5559,-0.5558,-0.5566,-0.5567,-0.5568,-0.5568,-0.5537,-0.5535,-0.5533,-0.5502,0,0,-0.5526,-0.5525,0,0,0,0,0,0,0,0,-0.5622,-0.5618,-0.5588,-0.5588,-0.5588,-0.5567,-0.5568,-0.5539,-0.5566,-0.5574,-0.5568,-0.5569,-0.5545,-0.5543,-0.5535,-0.5501,-0.5499,-0.5526,-0.5525,-0.5524,-0.5523,0,0,0,0,0,0,0,-0.5624,-0.5619,-0.5577,-0.5588,-0.5587,-0.5588,-0.5585,-0.5562,-0.5555,-0.5573,-0.5574,-0.557,-0.5545,-0.5537,-0.5534,-0.5499,-0.5526,-0.5524,-0.5523,-0.5522,-0.5434,-0.5433,0,0,0,0,0,0,-0.5626,-0.5621,-0.5578,-0.5576,-0.5607,-0.5586,-0.5583,-0.5573,-0.5555,-0.5554,-0.557,-0.5571,-0.554,-0.5537,-0.5533,-0.5495,-0.5524,-0.5522,-0.5521,-0.5436,-0.5434,-0.5433,0,0,0,0,0,0,-0.5627,-0.5622,-0.5579,-0.5598,-0.5593,-0.5584,-0.5573,-0.5572,-0.5564,-0.5553,-0.5551,-0.5563,-0.5541,-0.5536,-0.5509,-0.5494,-0.5521,-0.5519,-0.5437,-0.5435,-0.5434,-0.5419,0,0,0,0,0,0,-0.5629,-0.5623,-0.5612,-0.5598,-0.5592,-0.5556,-0.5572,-0.557,-0.556,-0.5561,-0.5546,-0.5544,-0.5541,-0.5512,-0.5507,-0.5491,-0.5517,-0.5438,-0.5436,-0.5434,-0.542,-0.5417,-0.5413,0,0,0,0,0,-0.5631,-0.5609,-0.5612,-0.5606,-0.5578,-0.5556,-0.5552,-0.555,-0.5559,-0.5547,-0.554,-0.5545,-0.5496,-0.551,-0.5504,-0.5487,-0.5439,-0.5437,-0.5434,-0.5422,-0.5417,-0.5413,0,0,0,0,0,0,-0.5622,-0.5607,-0.561,-0.5583,-0.557,-0.5557,-0.5543,-0.5545,-0.5529,-0.5531,-0.5528,-0.5524,-0.5497,-0.5489,-0.5504,-0.5455,-0.5469,-0.5465,-0.5461,-0.5457,-0.5453,-0.5456,-0.5516,0,0,0,0,0,-0.5616,-0.56,-0.5588,-0.5565,-0.5558,-0.5551,-0.5541,-0.554,-0.5527,-0.5522,-0.5512,-0.5499,-0.548,-0.5468,-0.545,-0.5419,-0.5415,-0.5404,-0.5401,-0.5398,-0.5395,-0.5375,-0.537,-0.5425,-0.5425,-0.5425,0,0,-0.5605,-0.5595,-0.5585,-0.5563,-0.5553,-0.5534,-0.5547,-0.5528,-0.5513,-0.5519,-0.5493,-0.5485,-0.5469,-0.5439,-0.5425,-0.5432,-0.5378,-0.5395,-0.5393,-0.5391,-0.5372,-0.5367,-0.5363,-0.5424,-0.5424,-0.5424,0,0,-0.5576,-0.5567,-0.5546,-0.5536,-0.5521,-0.5516,-0.551,-0.5496,-0.5491,-0.5465,-0.5468,-0.545,-0.5419,-0.5407,-0.5396,-0.5359,-0.5362,-0.5353,-0.5335,-0.5316,-0.5312,-0.5308,-0.5294,-0.5289,-0.535,-0.535,-0.535,0,-0.5564,-0.5538,-0.5535,-0.5515,-0.5504,-0.5507,-0.5485,-0.5475,-0.5455,-0.5446,-0.5454,-0.5413,-0.5403,-0.5369,-0.536,-0.5352,-0.5344,-0.5356,-0.5313,-0.5309,-0.5305,-0.5291,-0.5286,-0.5349,-0.5349,-0.5349,-0.5349,0,-0.5523,-0.5504,-0.5489,-0.5469,-0.5456,-0.5435,-0.5428,-0.5415,-0.5415,-0.5408,-0.538,-0.5367,-0.5346,-0.5338,-0.5337,-0.5303,-0.5307,-0.5314,-0.5328,-0.5299,-0.5286,-0.5281,-0.5348,-0.5348,-0.5348,-0.5348,0,0,-0.5489,-0.5466,-0.546,-0.545,-0.5433,-0.5417,-0.5395,-0.5375,-0.5363,-0.5348,-0.5328,-0.53,-0.5305,-0.5294,-0.5291,-0.5275,-0.5244,-0.5283,-0.5282,-0.5275,-0.5204,-0.5199,-0.5193,-0.5245,-0.5244,-0.5244,-0.5205,0,-0.5457,-0.5419,-0.5415,-0.5381,-0.5362,-0.5364,-0.5344,-0.533,-0.5323,-0.5305,-0.5296,-0.5276,-0.5285,-0.5277,-0.5261,-0.5251,-0.5229,-0.5254,-0.5226,-0.5225,-0.523,-0.5186,-0.5182,-0.5146,-0.52,-0.5199,-0.5198,0,-0.5416,-0.5399,-0.5363,-0.5346,-0.5338,-0.532,-0.53,-0.5283,-0.5266,-0.5262,-0.5247,-0.5247,-0.5222,-0.5236,-0.52,-0.5217,-0.5205,-0.5198,-0.5196,-0.5194,-0.521,-0.5182,-0.5134,-0.5129,-0.519,-0.5191,-0.5191,0,-0.5393,-0.5362,-0.5336,-0.5327,-0.5307,-0.5294,-0.5284,-0.5268,-0.5256,-0.5237,-0.5228,-0.5207,-0.5196,-0.5178,-0.5171,-0.5182,-0.5135,-0.5149,-0.513,-0.513,-0.512,-0.5121,-0.507,-0.5113,-0.5113,-0.5113,-0.5113,0,-0.5359,-0.5336,-0.5325,-0.5309,-0.5283,-0.5277,-0.5251,-0.5242,-0.5227,-0.5208,-0.5208,-0.5189,-0.5181,-0.516,-0.5154,-0.5125,-0.5119,-0.5114,-0.5113,-0.5114,-0.5115,-0.5107,-0.5109,-0.5111,-0.5112,-0.5112,-0.5112,0,-0.533,-0.5322,-0.5293,-0.5275,-0.527,-0.5251,-0.5235,-0.5219,-0.521,-0.5186,-0.518,-0.5167,-0.5143,-0.5133,-0.5104,-0.5099,-0.5065,-0.5066,-0.5071,-0.5071,-0.5052,-0.5053,-0.4993,-0.4984,-0.5033,-0.5033,-0.5032,0,-0.5308,-0.5291,-0.5271,-0.5258,-0.5248,-0.5228,-0.5214,-0.5207,-0.5193,-0.5171,-0.5156,-0.5132,-0.5113,-0.5074,-0.5061,-0.5037,-0.5037,-0.5018,-0.5034,-0.5035,-0.5036,-0.5037,-0.5035,-0.5015,-0.5014,-0.5014,-0.5014,0,-0.5271,-0.5267,-0.5248,-0.5227,-0.5211,-0.5194,-0.5177,-0.5167,-0.5156,-0.514,-0.5115,-0.51,-0.5069,-0.5045,-0.502,-0.5009,-0.5009,-0.5008,-0.5003,-0.5004,-0.5008,-0.5005,-0.5063,-0.501,-0.501,-0.5011,-0.5011,-0.5011,-0.5245,-0.5228,-0.5211,-0.519,-0.5176,-0.516,-0.5143,-0.5132,-0.5112,-0.5086,-0.5083,-0.5056,-0.5036,-0.5004,-0.4991,-0.4969,-0.4974,-0.4966,-0.4963,-0.4961,-0.496,-0.5011,-0.4964,-0.4964,-0.4964,-0.4964,-0.4964,0,-0.5206,-0.5195,-0.5175,-0.5151,-0.5134,-0.5135,-0.5116,-0.5101,-0.5077,-0.506,-0.504,-0.501,-0.4986,-0.497,-0.4945,-0.493,-0.4929,-0.4923,-0.4924,-0.4921,-0.4957,-0.4965,-0.4924,-0.4924,-0.4924,-0.4924,-0.4924,-0.4924,-0.5185,-0.5157,-0.5151,-0.5115,-0.5103,-0.5078,-0.5066,-0.505,-0.5036,-0.5003,-0.4983,-0.4973,-0.4955,-0.4928,-0.4905,-0.4901,-0.4891,-0.4885,-0.4881,-0.4915,-0.4919,-0.4923,-0.493,-0.4883,-0.4883,-0.4847,-0.4847,-0.4847]}]]